Location: Marsån
(66.4167°N, 22.2833°E)
Time: 12:02:13
(UTC+00:00)

Cosmos 1833 Rocket - Pass Details

Date: 24 February 2024
Orbit: 833 x 838 km, 71.0° (Epoch: 15 April)

Event Time Altitude Azimuth Distance (km) Brightness Sun altitude
Rises 23:31:07 0° 305° (NW) 3,400 6.1 -32.4°
Reaches altitude 10° 23:33:33 10° 305° (NW) 2,463 5.3 -32.3°
Enters shadow 23:35:57 26° 306° (NW) 1,587 4.2 -32.3°
